Time,TemperatureF,DewpointF,PressureIn,WindDirection,WindDirectionDegrees,WindSpeedMPH,WindSpeedGustMPH,Humidity,HourlyPrecipIn,Conditions,Clouds,dailyrainin,SoftwareType,DateUTC
2013-03-07 00:07:00,26.9,23.0,30.34,NW,326,0.0,0.0,84,0.00,,,0.00,weatherlink.com 1.10,2013-03-07 06:07:00,
2013-03-07 00:23:00,26.8,23.0,30.34,NW,326,0.0,0.0,84,0.00,,,0.00,weatherlink.com 1.10,2013-03-07 06:23:00,
2013-03-07 00:38:00,26.7,23.0,30.34,NW,326,0.0,0.0,85,0.00,,,0.00,weatherlink.com 1.10,2013-03-07 06:38:00,
2013-03-07 00:53:00,26.5,23.0,30.34,NW,326,0.0,0.0,85,0.00,,,0.00,weatherlink.com 1.10,2013-03-07 06:53:00,
2013-03-07 01:08:00,26.3,23.0,30.35,NW,326,0.0,0.0,86,0.00,,,0.00,weatherlink.com 1.10,2013-03-07 07:08:00,
2013-03-07 01:23:00,25.9,23.0,30.35,NW,326,0.0,0.0,87,0.00,,,0.00,weatherlink.com 1.10,2013-03-07 07:23:00,
2013-03-07 01:38:00,25.5,22.0,30.36,NW,326,0.0,0.0,87,0.00,,,0.00,weatherlink.com 1.10,2013-03-07 07:38:00,
2013-03-07 01:53:00,25.3,22.0,30.36,NW,326,0.0,0.0,88,0.00,,,0.00,weatherlink.com 1.10,2013-03-07 07:53:00,
2013-03-07 02:08:00,25.1,22.0,30.36,NW,326,0.0,0.0,88,0.00,,,0.00,weatherlink.com 1.10,2013-03-07 08:08:00,
2013-03-07 02:23:00,24.9,22.0,30.36,NW,326,0.0,0.0,89,0.00,,,0.00,weatherlink.com 1.10,2013-03-07 08:23:00,
2013-03-07 02:38:00,24.9,22.0,30.36,NW,326,0.0,0.0,89,0.00,,,0.00,weatherlink.com 1.10,2013-03-07 08:38:00,
2013-03-07 02:53:00,24.4,22.0,30.36,NW,326,0.0,0.0,89,0.00,,,0.00,weatherlink.com 1.10,2013-03-07 08:53:00,
2013-03-07 03:08:00,24.3,22.0,30.35,NW,326,0.0,0.0,90,0.00,,,0.00,weatherlink.com 1.10,2013-03-07 09:08:00,
2013-03-07 03:23:00,24.4,22.0,30.36,NW,326,0.0,0.0,90,0.00,,,0.00,weatherlink.com 1.10,2013-03-07 09:23:00,
2013-03-07 03:38:00,24.3,22.0,30.36,NW,326,0.0,0.0,90,0.00,,,0.00,weatherlink.com 1.10,2013-03-07 09:38:00,
2013-03-07 03:53:00,24.1,22.0,30.36,NW,326,0.0,0.0,90,0.00,,,0.00,weatherlink.com 1.10,2013-03-07 09:53:00,
2013-03-07 04:08:00,23.8,21.0,30.37,NW,326,0.0,0.0,90,0.00,,,0.00,weatherlink.com 1.10,2013-03-07 10:08:00,
2013-03-07 04:23:00,23.5,21.0,30.37,NW,326,0.0,0.0,90,0.00,,,0.00,weatherlink.com 1.10,2013-03-07 10:23:00,
2013-03-07 04:38:00,23.3,21.0,30.37,NW,326,0.0,0.0,90,0.00,,,0.00,weatherlink.com 1.10,2013-03-07 10:38:00,
2013-03-07 04:53:00,23.2,21.0,30.37,NW,326,0.0,0.0,91,0.00,,,0.00,weatherlink.com 1.10,2013-03-07 10:53:00,
2013-03-07 05:08:00,23.2,21.0,30.37,NW,326,0.0,0.0,91,0.00,,,0.00,weatherlink.com 1.10,2013-03-07 11:08:00,
2013-03-07 05:23:00,23.0,21.0,30.37,NW,326,0.0,0.0,91,0.00,,,0.00,weatherlink.com 1.10,2013-03-07 11:23:00,
2013-03-07 05:38:00,22.8,21.0,30.37,NW,326,0.0,0.0,91,0.00,,,0.00,weatherlink.com 1.10,2013-03-07 11:38:00,
2013-03-07 05:53:00,22.6,20.0,30.38,NW,326,0.0,0.0,91,0.00,,,0.00,weatherlink.com 1.10,2013-03-07 11:53:00,
2013-03-07 06:08:00,22.4,20.0,30.38,NW,326,0.0,0.0,91,0.00,,,0.00,weatherlink.com 1.10,2013-03-07 12:08:00,
2013-03-07 06:23:00,22.1,20.0,30.38,NW,326,0.0,0.0,91,0.00,,,0.00,weatherlink.com 1.10,2013-03-07 12:23:00,
2013-03-07 06:38:00,22.2,20.0,30.39,NW,326,0.0,0.0,91,0.00,,,0.00,weatherlink.com 1.10,2013-03-07 12:38:00,
2013-03-07 06:53:00,22.3,20.0,30.38,NW,326,0.0,0.0,92,0.00,,,0.00,weatherlink.com 1.10,2013-03-07 12:53:00,
2013-03-07 07:08:00,22.9,21.0,30.38,NW,326,0.0,0.0,92,0.00,,,0.00,weatherlink.com 1.10,2013-03-07 13:08:00,
2013-03-07 07:23:00,23.9,22.0,30.39,NW,326,0.0,0.0,92,0.00,,,0.00,weatherlink.com 1.10,2013-03-07 13:23:00,
2013-03-07 07:38:00,25.4,24.0,30.40,NNW,340,0.0,0.0,93,0.00,,,0.00,weatherlink.com 1.10,2013-03-07 13:38:00,
2013-03-07 07:53:00,27.4,25.0,30.40,NNE,24,0.0,0.0,89,0.00,,,0.00,weatherlink.com 1.10,2013-03-07 13:53:00,
2013-03-07 08:08:00,28.7,25.0,30.40,East,84,0.0,0.0,87,0.00,,,0.00,weatherlink.com 1.10,2013-03-07 14:08:00,
2013-03-07 08:23:00,29.9,25.0,30.40,SE,126,3.0,4.0,83,0.00,,,0.00,weatherlink.com 1.10,2013-03-07 14:23:00,
2013-03-07 08:38:00,30.7,25.0,30.41,ESE,119,1.0,4.0,80,0.00,,,0.00,weatherlink.com 1.10,2013-03-07 14:38:00,
2013-03-07 08:53:00,31.9,26.0,30.41,SSE,148,4.0,4.0,79,0.00,,,0.00,weatherlink.com 1.10,2013-03-07 14:53:00,
2013-03-07 09:09:00,32.3,25.0,30.41,SSE,153,3.0,6.0,75,0.00,,,0.00,weatherlink.com 1.10,2013-03-07 15:09:00,
2013-03-07 09:24:00,33.7,26.0,30.41,WSW,246,2.0,5.0,72,0.00,,,0.00,weatherlink.com 1.10,2013-03-07 15:24:00,
2013-03-07 09:39:00,34.3,25.0,30.41,SE,141,2.0,7.0,70,0.00,,,0.00,weatherlink.com 1.10,2013-03-07 15:39:00,
2013-03-07 09:54:00,34.7,25.0,30.41,SSW,192,2.0,6.0,69,0.00,,,0.00,weatherlink.com 1.10,2013-03-07 15:54:00,
2013-03-07 10:09:00,35.9,26.0,30.41,South,183,0.0,5.0,68,0.00,,,0.00,weatherlink.com 1.10,2013-03-07 16:09:00,
2013-03-07 10:24:00,36.7,26.0,30.41,ENE,63,2.0,5.0,65,0.00,,,0.00,weatherlink.com 1.10,2013-03-07 16:24:00,
2013-03-07 10:39:00,37.5,26.0,30.41,SE,146,1.0,4.0,64,0.00,,,0.00,weatherlink.com 1.10,2013-03-07 16:39:00,
2013-03-07 10:54:00,37.6,26.0,30.40,SSE,158,1.0,5.0,64,0.00,,,0.00,weatherlink.com 1.10,2013-03-07 16:54:00,
2013-03-07 11:09:00,38.2,26.0,30.39,SE,137,1.0,6.0,62,0.00,,,0.00,weatherlink.com 1.10,2013-03-07 17:09:00,
2013-03-07 11:24:00,38.9,26.0,30.39,West,275,1.0,5.0,61,0.00,,,0.00,weatherlink.com 1.10,2013-03-07 17:24:00,
2013-03-07 11:39:00,39.6,27.0,30.38,SE,144,2.0,7.0,60,0.00,,,0.00,weatherlink.com 1.10,2013-03-07 17:39:00,
2013-03-07 12:09:00,40.4,27.0,30.36,SW,229,2.0,5.0,60,0.00,,,0.00,weatherlink.com 1.10,2013-03-07 18:09:00,
2013-03-07 12:24:00,41.7,28.0,30.36,SE,131,1.0,4.0,58,0.00,,,0.00,weatherlink.com 1.10,2013-03-07 18:24:00,
2013-03-07 12:39:00,42.4,28.0,30.36,SE,139,3.0,6.0,56,0.00,,,0.00,weatherlink.com 1.10,2013-03-07 18:39:00,
2013-03-07 12:54:00,42.7,28.0,30.35,SSW,212,3.0,6.0,57,0.00,,,0.00,weatherlink.com 1.10,2013-03-07 18:54:00,
2013-03-07 13:09:00,43.6,28.0,30.34,SE,142,3.0,6.0,54,0.00,,,0.00,weatherlink.com 1.10,2013-03-07 19:09:00,
2013-03-07 13:24:00,44.1,28.0,30.33,ESE,121,2.0,8.0,54,0.00,,,0.00,weatherlink.com 1.10,2013-03-07 19:24:00,
2013-03-07 13:39:00,44.6,28.0,30.33,SSE,154,4.0,5.0,52,0.00,,,0.00,weatherlink.com 1.10,2013-03-07 19:39:00,
2013-03-07 13:54:00,45.5,28.0,30.32,WNW,293,1.0,5.0,50,0.00,,,0.00,weatherlink.com 1.10,2013-03-07 19:54:00,
2013-03-07 14:09:00,46.2,28.0,30.32,NE,53,2.0,5.0,50,0.00,,,0.00,weatherlink.com 1.10,2013-03-07 20:09:00,
2013-03-07 14:24:00,46.4,28.0,30.31,SSE,154,3.0,6.0,49,0.00,,,0.00,weatherlink.com 1.10,2013-03-07 20:24:00,
2013-03-07 14:39:00,46.9,29.0,30.31,SE,134,5.0,5.0,50,0.00,,,0.00,weatherlink.com 1.10,2013-03-07 20:39:00,
2013-03-07 14:54:00,47.0,28.0,30.31,SW,221,0.0,8.0,47,0.00,,,0.00,weatherlink.com 1.10,2013-03-07 20:54:00,
2013-03-07 15:09:00,47.2,29.0,30.31,NE,55,3.0,6.0,49,0.00,,,0.00,weatherlink.com 1.10,2013-03-07 21:09:00,
2013-03-07 15:24:00,47.1,28.0,30.31,NE,42,3.0,7.0,48,0.00,,,0.00,weatherlink.com 1.10,2013-03-07 21:24:00,
2013-03-07 15:40:00,47.4,28.0,30.30,ENE,67,2.0,7.0,48,0.00,,,0.00,weatherlink.com 1.10,2013-03-07 21:40:00,
2013-03-07 15:55:00,47.2,28.0,30.30,SSE,154,5.0,5.0,48,0.00,,,0.00,weatherlink.com 1.10,2013-03-07 21:55:00,
2013-03-07 16:10:00,46.9,28.0,30.30,SSE,150,1.0,6.0,48,0.00,,,0.00,weatherlink.com 1.10,2013-03-07 22:10:00,
2013-03-07 16:25:00,46.7,28.0,30.29,SE,141,1.0,8.0,48,0.00,,,0.00,weatherlink.com 1.10,2013-03-07 22:25:00,
2013-03-07 16:40:00,46.7,28.0,30.29,ESE,120,7.0,8.0,48,0.00,,,0.00,weatherlink.com 1.10,2013-03-07 22:40:00,
2013-03-07 16:55:00,46.4,27.0,30.29,SE,136,3.0,4.0,48,0.00,,,0.00,weatherlink.com 1.10,2013-03-07 22:55:00,
2013-03-07 17:10:00,46.1,28.0,30.30,SE,138,2.0,5.0,49,0.00,,,0.00,weatherlink.com 1.10,2013-03-07 23:10:00,
2013-03-07 17:25:00,45.9,29.0,30.30,SE,128,4.0,6.0,51,0.00,,,0.00,weatherlink.com 1.10,2013-03-07 23:25:00,
2013-03-07 17:40:00,45.2,28.0,30.30,SE,128,3.0,8.0,52,0.00,,,0.00,weatherlink.com 1.10,2013-03-07 23:40:00,
2013-03-07 17:55:00,44.5,29.0,30.30,SE,126,5.0,7.0,54,0.00,,,0.00,weatherlink.com 1.10,2013-03-07 23:55:00,
2013-03-07 18:10:00,43.8,28.0,30.30,ESE,105,1.0,4.0,55,0.00,,,0.00,weatherlink.com 1.10,2013-03-08 00:10:00,
2013-03-07 18:25:00,43.1,29.0,30.30,East,101,3.0,5.0,59,0.00,,,0.00,weatherlink.com 1.10,2013-03-08 00:25:00,
2013-03-07 18:40:00,42.3,30.0,30.30,ENE,78,2.0,5.0,61,0.00,,,0.00,weatherlink.com 1.10,2013-03-08 00:40:00,
2013-03-07 18:55:00,41.5,30.0,30.31,SE,139,1.0,8.0,63,0.00,,,0.00,weatherlink.com 1.10,2013-03-08 00:55:00,
2013-03-07 19:10:00,40.9,30.0,30.31,ESE,110,1.0,6.0,65,0.00,,,0.00,weatherlink.com 1.10,2013-03-08 01:10:00,
2013-03-07 19:25:00,40.3,30.0,30.31,SE,126,1.0,6.0,67,0.00,,,0.00,weatherlink.com 1.10,2013-03-08 01:25:00,
2013-03-07 19:40:00,39.9,30.0,30.31,ESE,117,0.0,5.0,68,0.00,,,0.00,weatherlink.com 1.10,2013-03-08 01:40:00,
2013-03-07 19:55:00,39.5,30.0,30.31,ESE,112,1.0,4.0,70,0.00,,,0.00,weatherlink.com 1.10,2013-03-08 01:55:00,
2013-03-07 20:10:00,39.1,30.0,30.32,SE,124,0.0,7.0,71,0.00,,,0.00,weatherlink.com 1.10,2013-03-08 02:10:00,
2013-03-07 20:25:00,38.5,30.0,30.32,East,101,1.0,5.0,72,0.00,,,0.00,weatherlink.com 1.10,2013-03-08 02:25:00,
2013-03-07 20:40:00,38.1,30.0,30.32,SE,124,0.0,4.0,73,0.00,,,0.00,weatherlink.com 1.10,2013-03-08 02:40:00,
2013-03-07 20:55:00,37.8,30.0,30.32,ESE,107,1.0,4.0,74,0.00,,,0.00,weatherlink.com 1.10,2013-03-08 02:55:00,
2013-03-07 21:10:00,37.3,30.0,30.32,ESE,107,2.0,4.0,76,0.00,,,0.00,weatherlink.com 1.10,2013-03-08 03:10:00,
2013-03-07 21:25:00,37.0,30.0,30.32,SE,124,2.0,4.0,76,0.00,,,0.00,weatherlink.com 1.10,2013-03-08 03:25:00,
2013-03-07 21:40:00,36.8,30.0,30.32,ESE,117,2.0,3.0,77,0.00,,,0.00,weatherlink.com 1.10,2013-03-08 03:40:00,
2013-03-07 21:55:00,36.5,30.0,30.33,SE,138,1.0,4.0,77,0.00,,,0.00,weatherlink.com 1.10,2013-03-08 03:55:00,
2013-03-07 22:10:00,36.3,30.0,30.33,SE,138,0.0,1.0,78,0.00,,,0.00,weatherlink.com 1.10,2013-03-08 04:10:00,
2013-03-07 22:25:00,35.9,30.0,30.33,SE,138,0.0,0.0,79,0.00,,,0.00,weatherlink.com 1.10,2013-03-08 04:25:00,
2013-03-07 22:40:00,35.5,30.0,30.33,SE,138,0.0,0.0,79,0.00,,,0.00,weatherlink.com 1.10,2013-03-08 04:40:00,
2013-03-07 22:55:00,35.2,30.0,30.34,ESE,121,0.0,3.0,80,0.00,,,0.00,weatherlink.com 1.10,2013-03-08 04:55:00,
2013-03-07 23:10:00,35.1,30.0,30.34,SE,129,3.0,4.0,80,0.00,,,0.00,weatherlink.com 1.10,2013-03-08 05:10:00,
2013-03-07 23:25:00,35.0,29.0,30.34,ESE,121,1.0,3.0,80,0.00,,,0.00,weatherlink.com 1.10,2013-03-08 05:25:00,
2013-03-07 23:40:00,34.7,29.0,30.35,SE,133,0.0,2.0,81,0.00,,,0.00,weatherlink.com 1.10,2013-03-08 05:40:00,
2013-03-07 23:55:00,34.5,29.0,30.35,SSE,159,0.0,5.0,81,0.00,,,0.00,weatherlink.com 1.10,2013-03-08 05:55:00,